Weather History for Valparaiso, IN

Change the Weather History Date:

Tuesday, January 1, 2013

  Actual Average Record
Temperature  
Mean Temperature 21 °F 24 °F  
Max Temperature 29 °F 31 °F 54 °F (2011)
Min Temperature 13 °F 17 °F 4 °F (2010)
Degree Days  
Heating Degree Days 44 41  
Month to date heating degree days 44 41  
Since 1 July heating degree days 2229 2443  
Cooling Degree Days 0 0  
Month to date cooling degree days 0 0  
Year to date cooling degree days 0 0  
Moisture  
Dew Point 17 °F    
Average Humidity 76    
Maximum Humidity 86    
Minimum Humidity 61    
Precipitation  
Precipitation 0.00 in 0.06 in 0.21 in (2005)
Month to date precipitation 0.00 0.06  
Year to date precipitation 0.00 0.06  
Sea Level Pressure  
Sea Level Pressure 30.14 in    
Wind  
Wind Speed 8 mph (NW)    
Max Wind Speed 15 mph    
Max Gust Speed 18 mph    
Visibility 10 miles    
Events      
T = Trace of Precipitation, MM = Missing Value Source: NWS Daily Summary

Daily Weather History Graph

Daily Weather History Graph

Search for Another Location

Airport:

Trip Planner

Search our weather history database for the weather conditions in past years. The results will help you decide how hot, cold, wet, or windy it might be!

Date:

Astronomy

Jan. 01, 2013 Rise Set
Actual Time 7:14 AM CST 4:29 PM CST
Civil Twilight 6:43 AM CST 5:00 PM CST
Nautical Twilight 6:08 AM CST 5:35 PM CST
Astronomical Twilight 5:34 AM CST 6:08 PM CST
Moon 9:03 PM CST (1/1) 9:23 AM CST (1/1)
Length of Visible Light 10h 17m
Length of Day
9h 14m
Waning Gibbous, 83% of the Moon is Illuminated
Jan 1
Waning Gibbous
Jan 4
Last Quarter
Jan 11
New
Jan 18
First Quarter
Jan 26
Full

Hourly Weather History & Observations

Time (CST) Temp. Windchill Dew Point Humidity Pressure Visibility Wind Dir Wind Speed Gust Speed Precip Events Conditions
12:04 AM 26.6 °F 18.2 °F 19.4 °F 74% 30.08 in 9.0 mi NNW 8.1 mph - N/A   Overcast
12:40 AM 26.6 °F 17.5 °F 19.4 °F 74% 30.07 in 10.0 mi NNW 9.2 mph - N/A   Overcast
1:53 AM 26.1 °F 16.2 °F 21.0 °F 81% 30.11 in 10.0 mi NNW 10.4 mph - N/A   Overcast
2:20 AM 26.6 °F 20.0 °F 21.2 °F 80% 30.09 in 10.0 mi NW 5.8 mph - N/A   Overcast
2:53 AM 26.1 °F 17.6 °F 21.0 °F 81% 30.12 in 9.0 mi WNW 8.1 mph - N/A   Overcast
3:19 AM 24.8 °F 16.9 °F 21.2 °F 86% 30.09 in 10.0 mi WNW 6.9 mph - N/A   Overcast
3:30 AM 24.8 °F 16.9 °F 21.2 °F 86% 30.09 in 10.0 mi WNW 6.9 mph - N/A   Overcast
3:53 AM 25.0 °F 18.1 °F 21.0 °F 85% 30.11 in 10.0 mi WNW 5.8 mph - N/A   Overcast
4:01 AM 26.6 °F 20.0 °F 21.2 °F 80% 30.09 in 10.0 mi NW 5.8 mph - N/A   Overcast
4:53 AM 26.1 °F 18.4 °F 21.0 °F 81% 30.12 in 10.0 mi NW 6.9 mph - N/A   Overcast
5:28 AM 26.6 °F 20.0 °F 19.4 °F 74% 30.11 in 10.0 mi NW 5.8 mph - N/A   Overcast
5:53 AM 26.1 °F 16.8 °F 19.9 °F 78% 30.16 in 10.0 mi NW 9.2 mph - N/A   Overcast
6:28 AM 24.8 °F 14.0 °F 19.4 °F 80% 30.12 in 10.0 mi NW 11.5 mph 17.3 mph N/A   Mostly Cloudy
6:38 AM 24.8 °F 16.9 °F 19.4 °F 80% 30.12 in 10.0 mi NW 6.9 mph - N/A   Mostly Cloudy
6:53 AM 24.1 °F 13.7 °F 19.9 °F 84% 30.16 in 10.0 mi WNW 10.4 mph - N/A   Overcast
7:12 AM 23.0 °F - 19.4 °F 86% 30.14 in 10.0 mi North - - N/A   Mostly Cloudy
7:49 AM 21.2 °F 10.9 °F 17.6 °F 86% 30.14 in 10.0 mi WNW 9.2 mph - N/A   Overcast
7:53 AM 21.9 °F 11.0 °F 17.1 °F 82% 30.18 in 10.0 mi West 10.4 mph - N/A   Mostly Cloudy
8:17 AM 21.2 °F 10.9 °F 17.6 °F 86% 30.14 in 10.0 mi WNW 9.2 mph - N/A   Scattered Clouds
8:28 AM 23.0 °F 13.1 °F 19.4 °F 86% 30.13 in 10.0 mi NW 9.2 mph - N/A   Mostly Cloudy
8:46 AM 24.8 °F 12.9 °F 19.4 °F 80% 30.13 in 10.0 mi WNW 13.8 mph 18.4 mph N/A   Overcast
8:53 AM 24.1 °F 13.7 °F 19.9 °F 84% 30.16 in 10.0 mi NW 10.4 mph - N/A   Overcast
9:41 AM 26.6 °F 16.8 °F 21.2 °F 80% 30.14 in 10.0 mi NW 10.4 mph - N/A   Overcast
9:53 AM 27.0 °F 18.7 °F 21.0 °F 78% 30.19 in 10.0 mi NW 8.1 mph - N/A   Overcast
10:53 AM 27.0 °F 18.0 °F 19.9 °F 75% 30.19 in 10.0 mi WNW 9.2 mph - N/A   Overcast
11:04 AM 26.6 °F 17.5 °F 19.4 °F 74% 30.17 in 10.0 mi WNW 9.2 mph - N/A   Overcast
11:39 AM 26.6 °F 16.8 °F 19.4 °F 74% 30.15 in 10.0 mi WNW 10.4 mph - N/A   Overcast
11:53 AM 28.0 °F 17.5 °F 19.0 °F 69% 30.18 in 10.0 mi WNW 12.7 mph - N/A   Overcast
12:53 PM 28.0 °F 20.0 °F 16.0 °F 61% 30.16 in 10.0 mi NW 8.1 mph - N/A   Clear
1:53 PM 28.0 °F 19.3 °F 17.1 °F 63% 30.15 in 10.0 mi NNW 9.2 mph - N/A   Scattered Clouds
2:04 PM 26.6 °F 17.5 °F 17.6 °F 69% 30.11 in 10.0 mi NW 9.2 mph - N/A   Mostly Cloudy
2:15 PM 26.6 °F 19.1 °F 17.6 °F 69% 30.12 in 10.0 mi NNW 6.9 mph - N/A   Partly Cloudy
2:53 PM 25.0 °F 17.1 °F 17.1 °F 72% 30.16 in 10.0 mi NW 6.9 mph - N/A   Clear
3:32 PM 26.6 °F 19.1 °F 17.6 °F 69% 30.13 in 10.0 mi North 6.9 mph - N/A   Mostly Cloudy
3:40 PM 26.6 °F 19.1 °F 17.6 °F 69% 30.13 in 10.0 mi NW 6.9 mph - N/A   Partly Cloudy
4:53 PM 23.0 °F 17.0 °F 15.1 °F 72% 30.17 in 10.0 mi NW 4.6 mph - N/A   Clear
5:53 PM 21.0 °F 16.2 °F 14.0 °F 74% 30.18 in 10.0 mi NW 3.5 mph - N/A   Clear
6:53 PM 19.9 °F 14.9 °F 10.9 °F 68% 30.20 in 10.0 mi WNW 3.5 mph - N/A   Clear
7:53 PM 19.0 °F 12.3 °F 10.0 °F 68% 30.20 in 10.0 mi WNW 4.6 mph - N/A   Clear
8:53 PM 17.1 °F 7.6 °F 8.1 °F 68% 30.19 in 10.0 mi WNW 6.9 mph - N/A   Clear
9:53 PM 16.0 °F 6.3 °F 6.1 °F 65% 30.19 in 10.0 mi WNW 6.9 mph - N/A   Clear
10:53 PM 12.9 °F 2.6 °F 6.1 °F 74% 30.20 in 10.0 mi West 6.9 mph - N/A   Clear
11:53 PM 12.9 °F 1.6 °F 5.0 °F 71% 30.20 in 10.0 mi West 8.1 mph - N/A   Clear